Location: La Brionne
(46.1728°N, 1.7849°E)
Time: 08:25:17
(UTC+00:00)

USA 215 - Pass Details

Date: 16 June 2021
Orbit: 1100 x 1107 km, 123.0° (Epoch: 22 June)

Event Time Altitude Azimuth Distance (km) Brightness Sun altitude
Rises 23:19:56 0° 52° (NE) 3,923 6.6 -20.0°
Reaches altitude 10° 23:22:25 10° 50° (NE) 2,963 5.9 -20.1°
Maximum altitude 23:28:54 68° 330° (NNW) 1,179 3.6 -20.2°
Drops below altitude 10° 23:35:22 10° 248° (WSW) 2,955 5.3 -20.3°
Sets 23:37:51 0° 246° (WSW) 3,911 6.0 -20.4°
